[[{"header":{"parameterUnit":"m.s-1","parameterCategory":1,"la1":30.2991,"la2":30.254,"lo1":-89.0895,"lo2":-89.0444,"dy":0.0017,"dx":0.0017,"nx":28,"ny":28,"refTime":"2025-09-05T21:00:00:Z","depth":0,"parameterNumber":2,"parameterNumberName":"U-component_of_WINDS"},"data":[0,0,0,0,0,0,0,0,0,0,0,0,0,0,0,0,0,0,0,0,0,0,0,0,0,0,0,0,0,0,0,0,0,0,0,0,0,0,0,0,0,0,0,0,0,0,0,0,0,0,0,0,0,0,0,0,0,0,-0.2548,-0.2547,0,-0.249,-0.249,-0.2489,-0.2473,-0.2474,-0.2474,-0.2474,-0.2412,-0.241,-0.2408,0,0,0,0,0,0,0,0,0,0,0,0,0,-0.2642,-0.264,-0.2548,-0.2547,-0.2546,-0.2491,-0.249,-0.2489,-0.2473,-0.2474,-0.2474,-0.2475,-0.2413,-0.241,-0.2408,0,0,0,0,0,0,0,0,0,0,0,0,0,-0.2594,-0.264,-0.2548,-0.2532,-0.253,-0.2491,-0.249,-0.2489,-0.2473,-0.2474,-0.2474,-0.2475,-0.2414,-0.2411,-0.2408,-0.2379,0,0,-0.2399,-0.2397,0,0,0,0,0,0,0,0,-0.2597,-0.2591,-0.2535,-0.2533,-0.2531,-0.249,-0.25,-0.2452,-0.2473,-0.2495,-0.2474,-0.2475,-0.2437,-0.2432,-0.242,-0.2376,-0.2374,-0.2398,-0.2397,-0.2395,-0.2394,0,0,0,0,0,0,0,-0.26,-0.2593,-0.2525,-0.2534,-0.2532,-0.2527,-0.2521,-0.2491,-0.2464,-0.2493,-0.2492,-0.2485,-0.2436,-0.2423,-0.2419,-0.2373,-0.2398,-0.2396,-0.2394,-0.2393,-0.2304,-0.2303,0,0,0,0,0,0,-0.2607,-0.2596,-0.2527,-0.2523,-0.2566,-0.2525,-0.2518,-0.2502,-0.2464,-0.2459,-0.2485,-0.2485,-0.2428,-0.2422,-0.2417,-0.2381,-0.2395,-0.2393,-0.2391,-0.2304,-0.2304,-0.2303,0,0,0,0,0,0,-0.2609,-0.2601,-0.2529,-0.2559,-0.255,-0.2523,-0.2505,-0.2501,-0.2488,-0.2458,-0.2453,-0.2477,-0.2428,-0.2421,-0.2389,-0.2379,-0.2391,-0.2389,-0.2305,-0.2304,-0.2303,-0.231,0,0,0,0,0,0,-0.2612,-0.2602,-0.2591,-0.2559,-0.2548,-0.2503,-0.2505,-0.2499,-0.2483,-0.2483,-0.2449,-0.2444,-0.2428,-0.2394,-0.2386,-0.2375,-0.2386,-0.2306,-0.2305,-0.2304,-0.2311,-0.231,-0.2309,0,0,0,0,0,-0.2615,-0.2594,-0.259,-0.2582,-0.2534,-0.2503,-0.2496,-0.2479,-0.2483,-0.2471,-0.2452,-0.2445,-0.2382,-0.2391,-0.2382,-0.237,-0.2306,-0.2305,-0.2304,-0.2311,-0.231,-0.2309,0,0,0,0,0,0,-0.2623,-0.2589,-0.2585,-0.2553,-0.2531,-0.25,-0.2485,-0.2478,-0.2454,-0.2454,-0.2433,-0.2426,-0.2396,-0.238,-0.239,-0.2341,-0.2344,-0.2341,-0.2353,-0.2351,-0.235,-0.2354,-0.2384,0,0,0,0,0,-0.2621,-0.2599,-0.2571,-0.2545,-0.2535,-0.2512,-0.2498,-0.2487,-0.2463,-0.2453,-0.2431,-0.2407,-0.2382,-0.2366,-0.2341,-0.2309,-0.2302,-0.2296,-0.2296,-0.2295,-0.2292,-0.2275,-0.2273,-0.2299,-0.2299,-0.2299,0,0,-0.2617,-0.2596,-0.2583,-0.2547,-0.2528,-0.2505,-0.2504,-0.2479,-0.2462,-0.2449,-0.2418,-0.2402,-0.2374,-0.2342,-0.2327,-0.2328,-0.2284,-0.2293,-0.2293,-0.229,-0.2273,-0.2271,-0.2269,-0.2298,-0.2298,-0.2298,0,0,-0.2598,-0.258,-0.2557,-0.2539,-0.2512,-0.2498,-0.2493,-0.2463,-0.2452,-0.2422,-0.2411,-0.239,-0.2347,-0.2328,-0.2312,-0.2289,-0.2281,-0.2281,-0.2275,-0.2259,-0.2257,-0.2255,-0.2247,-0.2244,-0.2279,-0.2279,-0.2279,0,-0.2595,-0.2561,-0.2546,-0.2522,-0.2507,-0.2496,-0.2473,-0.2456,-0.2422,-0.2411,-0.2413,-0.236,-0.234,-0.2304,-0.2299,-0.2286,-0.228,-0.2284,-0.2259,-0.2257,-0.2255,-0.2247,-0.2244,-0.2279,-0.2279,-0.2279,-0.2279,0,-0.256,-0.2537,-0.2522,-0.2491,-0.2474,-0.245,-0.2431,-0.2416,-0.2407,-0.2393,-0.2362,-0.2339,-0.2309,-0.23,-0.2291,-0.2264,-0.2265,-0.2263,-0.2265,-0.2253,-0.2245,-0.2241,-0.2279,-0.2279,-0.2279,-0.2279,0,0,-0.2542,-0.2505,-0.2499,-0.2486,-0.2456,-0.2438,-0.2415,-0.2388,-0.2375,-0.2352,-0.2332,-0.2297,-0.2296,-0.2278,-0.2267,-0.2253,-0.2236,-0.2252,-0.2252,-0.225,-0.2206,-0.2207,-0.2204,-0.2232,-0.2231,-0.2231,-0.2208,0,-0.2519,-0.2478,-0.2464,-0.243,-0.2408,-0.2399,-0.2379,-0.2358,-0.2344,-0.2324,-0.2308,-0.2284,-0.2284,-0.2273,-0.2259,-0.2241,-0.2227,-0.2243,-0.2212,-0.2211,-0.2219,-0.22,-0.2201,-0.2181,-0.2205,-0.2204,-0.2204,0,-0.2485,-0.2464,-0.2428,-0.2403,-0.2394,-0.2376,-0.2351,-0.2332,-0.2309,-0.23,-0.2282,-0.2272,-0.2247,-0.2252,-0.2218,-0.2229,-0.2216,-0.2206,-0.2205,-0.2201,-0.2206,-0.2195,-0.2174,-0.2171,-0.2199,-0.2199,-0.22,0,-0.2476,-0.2439,-0.2413,-0.2401,-0.2371,-0.2359,-0.2346,-0.2324,-0.2309,-0.2287,-0.2277,-0.2252,-0.2238,-0.2219,-0.2203,-0.2208,-0.2171,-0.2174,-0.2162,-0.2163,-0.2154,-0.2155,-0.213,-0.2146,-0.2146,-0.2147,-0.2147,0,-0.2451,-0.243,-0.2408,-0.2392,-0.2368,-0.2353,-0.233,-0.2316,-0.2296,-0.2277,-0.2267,-0.2249,-0.2229,-0.2209,-0.2196,-0.217,-0.2164,-0.2156,-0.2153,-0.2157,-0.2158,-0.2147,-0.2148,-0.2146,-0.2146,-0.2146,-0.2146,0,-0.2436,-0.2421,-0.2392,-0.2367,-0.236,-0.2344,-0.2322,-0.2306,-0.2293,-0.2269,-0.2262,-0.2241,-0.2217,-0.22,-0.2168,-0.2159,-0.2132,-0.2128,-0.214,-0.2138,-0.2127,-0.2129,-0.2095,-0.209,-0.211,-0.211,-0.211,0,-0.2421,-0.2405,-0.2379,-0.2366,-0.2353,-0.2332,-0.2318,-0.2303,-0.2288,-0.2262,-0.2249,-0.2225,-0.2204,-0.2166,-0.2148,-0.2124,-0.212,-0.211,-0.2116,-0.2121,-0.212,-0.2121,-0.2119,-0.2108,-0.2108,-0.2108,-0.2108,0,-0.2396,-0.239,-0.237,-0.2348,-0.2332,-0.2313,-0.2294,-0.2284,-0.2266,-0.225,-0.2226,-0.221,-0.2179,-0.2155,-0.213,-0.2116,-0.2109,-0.2107,-0.2103,-0.2106,-0.2113,-0.211,-0.2137,-0.2107,-0.2107,-0.2107,-0.2107,-0.2107,-0.2381,-0.2366,-0.2346,-0.2324,-0.2309,-0.2293,-0.2277,-0.2263,-0.2243,-0.2217,-0.221,-0.2185,-0.2164,-0.2129,-0.2115,-0.2095,-0.2096,-0.209,-0.2088,-0.2087,-0.2088,-0.2118,-0.2091,-0.2091,-0.2091,-0.2091,-0.2091,0,-0.2355,-0.2342,-0.2323,-0.2298,-0.2281,-0.2278,-0.2258,-0.2244,-0.2223,-0.2204,-0.2185,-0.2158,-0.2135,-0.2116,-0.2092,-0.208,-0.2077,-0.2075,-0.2075,-0.2072,-0.2088,-0.2094,-0.2078,-0.2078,-0.2078,-0.2078,-0.2078,-0.2078,-0.234,-0.2315,-0.2307,-0.2276,-0.2263,-0.2239,-0.2228,-0.2213,-0.2198,-0.2169,-0.2151,-0.2139,-0.212,-0.2095,-0.2074,-0.2069,-0.2061,-0.206,-0.2054,-0.2069,-0.2071,-0.2072,-0.2077,-0.2058,-0.2058,-0.2039,-0.2039,-0.2039]},{"header":{"parameterUnit":"m.s-1","parameterCategory":1,"la1":30.2991,"la2":30.254,"lo1":-89.0895,"lo2":-89.0444,"dy":0.0017,"dx":0.0017,"nx":28,"ny":28,"refTime":"2025-09-05T21:00:00:Z","depth":0,"parameterNumber":3,"parameterNumberName":"V-component_of_WINDS"},"data":[0,0,0,0,0,0,0,0,0,0,0,0,0,0,0,0,0,0,0,0,0,0,0,0,0,0,0,0,0,0,0,0,0,0,0,0,0,0,0,0,0,0,0,0,0,0,0,0,0,0,0,0,0,0,0,0,0,0,2.5006,2.5006,0,2.496,2.496,2.4959,2.4915,2.4915,2.4914,2.4914,2.4863,2.4862,2.4861,0,0,0,0,0,0,0,0,0,0,0,0,0,2.505,2.5049,2.5006,2.5006,2.5005,2.496,2.496,2.4959,2.4915,2.4915,2.4914,2.4913,2.4863,2.4862,2.4861,0,0,0,0,0,0,0,0,0,0,0,0,0,2.502,2.5049,2.5006,2.4978,2.4975,2.496,2.496,2.4959,2.4916,2.4915,2.4914,2.4913,2.4864,2.4862,2.4861,2.487,0,0,2.4857,2.4857,0,0,0,0,0,0,0,0,2.5022,2.5018,2.4983,2.498,2.4977,2.4943,2.4956,2.4929,2.4916,2.4938,2.4914,2.4913,2.489,2.4887,2.488,2.4867,2.4865,2.4857,2.4856,2.4856,2.4856,0,0,0,0,0,0,0,2.5024,2.502,2.4988,2.4982,2.4979,2.4965,2.496,2.4951,2.4919,2.4936,2.4933,2.4928,2.4888,2.4881,2.4878,2.4864,2.4857,2.4856,2.4855,2.4855,2.485,2.4851,0,0,0,0,0,0,2.5031,2.5022,2.4989,2.4987,2.4998,2.4965,2.496,2.4954,2.4919,2.4913,2.4929,2.4926,2.4883,2.488,2.4876,2.488,2.4856,2.4855,2.4854,2.4849,2.485,2.4851,0,0,0,0,0,0,2.5032,2.5029,2.4991,2.5003,2.4998,2.4965,2.496,2.4954,2.4947,2.4914,2.4907,2.4928,2.4883,2.4878,2.487,2.4877,2.4854,2.4853,2.4849,2.485,2.485,2.4889,0,0,0,0,0,0,2.5034,2.5029,2.5034,2.5004,2.4997,2.4989,2.4961,2.4954,2.4945,2.4941,2.4911,2.4905,2.4882,2.4872,2.4869,2.4875,2.4852,2.4848,2.4849,2.485,2.4887,2.4891,2.4895,0,0,0,0,0,2.5035,2.5048,2.5035,2.5031,2.5003,2.4989,2.4985,2.4959,2.4946,2.4949,2.4926,2.4906,2.4877,2.4872,2.4868,2.4874,2.4847,2.4849,2.485,2.4885,2.4891,2.4895,0,0,0,0,0,0,2.508,2.5043,2.5029,2.5032,2.5014,2.4982,2.4986,2.4966,2.4951,2.4948,2.4915,2.4908,2.4903,2.4888,2.4883,2.4877,2.4859,2.486,2.4887,2.4892,2.4896,2.4899,2.4851,0,0,0,0,0,2.509,2.5083,2.5051,2.5057,2.5049,2.5019,2.5012,2.4993,2.4972,2.4964,2.4942,2.4922,2.4907,2.4899,2.4885,2.4885,2.4875,2.4886,2.489,2.4893,2.4894,2.4887,2.4891,2.4855,2.4855,2.4855,0,0,2.5111,2.509,2.5088,2.5065,2.5049,2.504,2.5013,2.5006,2.4998,2.4963,2.4954,2.4936,2.4911,2.4906,2.4903,2.4893,2.4901,2.4895,2.4898,2.4897,2.4889,2.4893,2.4896,2.4856,2.4856,2.4856,0,0,2.5144,2.5129,2.513,2.5114,2.5089,2.5068,2.5068,2.5038,2.5025,2.5016,2.4987,2.4976,2.4954,2.4936,2.4924,2.4944,2.4923,2.494,2.496,2.4955,2.4957,2.496,2.4963,2.4966,2.4941,2.4941,2.4941,0,2.5172,2.516,2.5133,2.5126,2.5115,2.5082,2.508,2.5066,2.5038,2.5029,2.5019,2.4986,2.4968,2.4955,2.496,2.4952,2.4948,2.4943,2.496,2.4961,2.4963,2.4966,2.4968,2.4943,2.4943,2.4943,2.4943,0,2.5194,2.5186,2.5189,2.5162,2.5151,2.5147,2.5116,2.5108,2.5088,2.5068,2.5055,2.5031,2.5008,2.5004,2.4986,2.4988,2.4982,2.4966,2.4947,2.4969,2.4971,2.4972,2.4946,2.4945,2.4945,2.4944,0,0,2.5255,2.521,2.5212,2.5197,2.5166,2.5157,2.515,2.5128,2.512,2.5101,2.5091,2.507,2.5054,2.504,2.5019,2.5014,2.5026,2.4998,2.4996,2.5001,2.5022,2.5033,2.5035,2.5012,2.5013,2.5013,2.5023,0,2.528,2.5267,2.524,2.5234,2.5222,2.5189,2.5182,2.516,2.514,2.5125,2.5102,2.5086,2.5068,2.5058,2.5052,2.5027,2.503,2.5026,2.5,2.5,2.5006,2.5037,2.505,2.5061,2.5024,2.5025,2.5025,0,2.5309,2.529,2.5283,2.5248,2.5243,2.5237,2.5212,2.5201,2.5173,2.5158,2.514,2.5116,2.5103,2.5086,2.5065,2.5062,2.505,2.5035,2.5035,2.503,2.5013,2.5031,2.5064,2.5065,2.5026,2.5026,2.5026,0,2.5349,2.5323,2.5314,2.5303,2.5263,2.5259,2.5242,2.5214,2.5201,2.5179,2.517,2.5146,2.5133,2.5114,2.5082,2.5074,2.5063,2.5045,2.5047,2.5048,2.5046,2.5046,2.5076,2.5041,2.5041,2.5041,2.5041,0,2.5379,2.5375,2.5331,2.5326,2.5318,2.5286,2.5279,2.5258,2.5233,2.522,2.519,2.5178,2.5139,2.5121,2.5096,2.508,2.5075,2.506,2.5053,2.5062,2.5063,2.5052,2.505,2.5042,2.5042,2.5041,2.5041,0,2.5423,2.5394,2.5381,2.5344,2.5334,2.533,2.5297,2.5288,2.5265,2.5249,2.5243,2.5205,2.5183,2.515,2.5118,2.51,2.5087,2.5077,2.5097,2.5092,2.5095,2.5095,2.5118,2.5117,2.5085,2.5086,2.5086,0,2.5443,2.5439,2.54,2.539,2.5374,2.5358,2.5344,2.5311,2.5297,2.5263,2.5258,2.5233,2.5211,2.5176,2.5144,2.5118,2.5106,2.5116,2.5102,2.5109,2.5103,2.5103,2.5101,2.5119,2.5119,2.512,2.512,0,2.548,2.5465,2.5447,2.5423,2.5408,2.5387,2.5365,2.5358,2.5318,2.5304,2.5281,2.5264,2.523,2.5204,2.5173,2.5152,2.5128,2.5125,2.5123,2.5132,2.5142,2.5133,2.5103,2.5124,2.5124,2.5124,2.5123,2.5123,2.551,2.5503,2.5474,2.5454,2.5434,2.5413,2.5402,2.5376,2.5357,2.5327,2.5308,2.5284,2.5253,2.5209,2.5189,2.5168,2.5158,2.5157,2.5157,2.5156,2.5158,2.5146,2.5162,2.5162,2.5162,2.5162,2.5162,0,2.5542,2.5522,2.5504,2.5473,2.5456,2.5437,2.541,2.5396,2.5377,2.535,2.5329,2.53,2.5274,2.5239,2.521,2.52,2.5188,2.5193,2.5193,2.5187,2.517,2.5173,2.5203,2.5203,2.5203,2.5203,2.5203,2.5203,2.5557,2.5543,2.5525,2.5499,2.5477,2.5455,2.5441,2.542,2.5398,2.5368,2.5347,2.5324,2.5293,2.5261,2.5235,2.5225,2.5214,2.5222,2.5209,2.5193,2.5189,2.5186,2.5188,2.5221,2.5221,2.5228,2.5228,2.5228]}]]